VA7IS Weather Reports


time (UTC)temp
C
wind
direction
speed
KPH
gust
KPH
rain 1hr
cm
rain 24hr
cm
rain mn
cm
humidity
%
barometer
mb
20260506112504 13 0 0.0 0.0 0.00 0.00 0.00 1 1016.0
20260506112004 13 0 0.0 0.0 0.00 0.00 0.00 1 1015.9
20260506111505 13 0 0.0 0.0 0.00 0.00 0.00 1 1015.8
20260506111005 13 0 0.0 0.0 0.00 0.00 0.00 1 1015.7
20260506110504 13 0 0.0 0.0 0.00 0.00 0.00 1 1015.6
20260506110005 13 0 0.0 0.0 0.00 0.00 0.00 1 1015.6
20260506105504 13 0 0.0 0.0 0.00 0.00 0.00 1 1015.6
20260506105005 13 0 0.0 0.0 0.00 0.00 0.00 1 1015.5
20260506104504 13 0 0.0 0.0 0.00 0.00 0.00 1 1015.5
20260506104004 13 0 0.0 0.0 0.00 0.00 0.00 1 1015.5
20260506103504 13 0 0.0 0.0 0.00 0.00 0.00 1 1015.4
20260506103005 13 0 0.0 0.0 0.00 0.00 0.00 1 1015.4
20260506102504 13 0 0.0 0.0 0.00 0.00 0.00 1 1015.5
20260506102004 13 0 0.0 0.0 0.00 0.00 0.00 1 1015.4
20260506101505 13 0 0.0 0.0 0.00 0.00 0.00 1 1015.3
20260506101004 13 0 0.0 0.0 0.00 0.00 0.00 1 1015.3
20260506100504 13 0 0.0 0.0 0.00 0.00 0.00 1 1015.2
20260506100005 13 0 0.0 0.0 0.00 0.00 0.00 1 1015.2
20260506095505 13 0 0.0 0.0 0.00 0.00 0.00 1 1015.1
20260506095004 13 0 0.0 0.0 0.00 0.00 0.00 1 1015.0
20260506094005 13 0 0.0 0.0 0.00 0.00 0.00 1 1015.0
20260506093005 13 0 0.0 0.0 0.00 0.00 0.00 1 1015.0
20260506092504 13 0 0.0 0.0 0.00 0.00 0.00 1 1014.9
20260506092004 12 0 0.0 0.0 0.00 0.00 0.00 1 1015.0
20260506091504 12 0 0.0 0.0 0.00 0.00 0.00 1 1014.9
20260506090504 12 0 0.0 0.0 0.00 0.00 0.00 1 1014.9
20260506090005 12 0 0.0 0.0 0.00 0.00 0.00 1 1014.9
20260506085504 12 0 0.0 1.6 0.00 0.00 0.00 1 1014.9
20260506085004 12 0 0.0 3.2 0.00 0.00 0.00 1 1014.9
20260506084005 12 0 0.0 1.6 0.00 0.00 0.00 1 1014.8
20260506083504 12 0 0.0 1.6 0.00 0.00 0.00 1 1014.7
20260506083005 12 0 0.0 1.6 0.00 0.00 0.00 1 1014.7
20260506082504 12 0 0.0 3.2 0.00 0.00 0.00 1 1014.7
20260506082004 12 0 0.0 3.2 0.00 0.00 0.00 1 1014.7
20260506081505 12 0 0.0 0.0 0.00 0.00 0.00 1 1014.7
20260506081004 12 233 1.6 3.2 0.00 0.00 0.00 1 1014.7
20260506080505 12 233 1.6 3.2 0.00 0.00 0.00 1 1014.6
20260506073505 13 0 0.0 0.0 0.00 0.00 0.00 1 1014.3
20260506073004 13 0 0.0 0.0 0.00 0.00 0.00 1 1014.2
20260506072505 13 0 0.0 0.0 0.00 0.00 0.00 1 1014.2
20260506072004 13 0 0.0 0.0 0.00 0.00 0.00 1 1014.2
20260506071505 13 0 0.0 0.0 0.00 0.00 0.00 1 1014.2
20260506071004 13 0 0.0 0.0 0.00 0.00 0.00 1 1014.2
20260506070504 13 0 0.0 0.0 0.00 0.00 0.00 1 1014.2
20260506062004 13 0 0.0 0.0 0.00 0.00 0.00 1 1013.9
20260506061505 13 0 0.0 0.0 0.00 0.00 0.00 1 1013.9
20260506061004 13 233 1.6 1.6 0.00 0.00 0.00 1 1013.9
20260506060504 13 233 1.6 3.2 0.00 0.00 0.00 1 1013.8
20260506051004 13 234 1.6 3.2 0.00 0.00 0.00 1 1013.5
20260506050504 13 234 1.6 3.2 0.00 0.00 0.00 1 1013.5
20260506045004 13 234 1.6 3.2 0.00 0.00 0.00 1 1013.3
20260506044505 13 234 1.6 3.2 0.00 0.00 0.00 1 1013.2
20260506044004 13 0 0.0 3.2 0.00 0.00 0.00 1 1013.2
20260506042504 13 0 0.0 0.0 0.00 0.00 0.00 10 1013.2
20260506042004 13 0 0.0 0.0 0.00 0.00 0.00 16 1013.1
20260506041004 14 0 0.0 1.6 0.00 0.00 0.00 27 1013.0
20260506040504 15 0 0.0 1.6 0.00 0.00 0.00 29 1013.0
20260506040004 15 0 0.0 1.6 0.00 0.00 0.00 29 1012.9
20260506035504 15 0 0.0 0.0 0.00 0.00 0.00 29 1012.9
20260506035005 15 0 0.0 1.6 0.00 0.00 0.00 32 1012.8
20260506034505 15 0 0.0 3.2 0.00 0.00 0.00 33 1012.7
20260506033504 15 0 0.0 1.6 0.00 0.00 0.00 35 1012.6
20260506033005 15 0 0.0 1.6 0.00 0.00 0.00 38 1012.6
20260506032504 16 0 0.0 1.6 0.00 0.00 0.00 37 1012.5
20260506032005 16 0 0.0 1.6 0.00 0.00 0.00 39 1012.5
20260506031504 16 168 1.6 3.2 0.00 0.00 0.00 42 1012.4
20260506031005 16 168 1.6 3.2 0.00 0.00 0.00 48 1012.5
20260506030505 16 0 0.0 1.6 0.00 0.00 0.00 50 1012.4
20260506030005 16 0 0.0 1.6 0.00 0.00 0.00 51 1012.4
20260506025504 16 0 0.0 4.8 0.00 0.00 0.00 51 1012.4
20260506025005 16 163 1.6 4.8 0.00 0.00 0.00 52 1012.4
20260506024004 17 266 1.6 3.2 0.00 0.00 0.00 53 1012.4
20260506023004 17 156 1.6 4.8 0.00 0.00 0.00 54 1012.4
20260506022504 17 0 0.0 4.8 0.00 0.00 0.00 54 1012.4
20260506021504 17 189 1.6 4.8 0.00 0.00 0.00 54 1012.3
20260506020504 17 183 1.6 4.8 0.00 0.00 0.00 54 1012.4
20260506020004 17 207 1.6 4.8 0.00 0.00 0.00 55 1012.4
20260506015503 17 224 1.6 4.8 0.00 0.00 0.00 54 1012.3
20260506015004 17 196 3.2 6.4 0.00 0.00 0.00 54 1012.4
20260506014504 17 166 3.2 8.0 0.00 0.00 0.00 54 1012.3
20260506014005 17 182 3.2 8.0 0.00 0.00 0.00 54 1012.3
20260506013504 17 179 3.2 9.7 0.00 0.00 0.00 54 1012.3
20260506013005 17 156 3.2 9.7 0.00 0.00 0.00 55 1012.4
20260506012504 18 149 3.2 8.0 0.00 0.00 0.00 55 1012.4
20260506012004 18 187 3.2 8.0 0.00 0.00 0.00 55 1012.3
20260506011504 18 241 3.2 8.0 0.00 0.00 0.00 55 1012.4
20260506011004 18 204 3.2 8.0 0.00 0.00 0.00 55 1012.4
20260506010504 18 182 3.2 8.0 0.00 0.00 0.00 55 1012.5
20260506010004 18 160 3.2 9.7 0.00 0.00 0.00 55 1012.5
20260506005504 18 162 3.2 9.7 0.00 0.00 0.00 56 1012.5
20260506005004 18 179 3.2 9.7 0.00 0.00 0.00 55 1012.4
20260506004505 18 185 3.2 9.7 0.00 0.00 0.00 56 1012.4
20260506004004 18 178 3.2 11.3 0.00 0.00 0.00 56 1012.4
20260506003503 18 170 3.2 11.3 0.00 0.00 0.00 56 1012.3
20260506003004 19 181 4.8 11.3 0.00 0.00 0.00 55 1012.4
20260506002504 19 185 3.2 11.3 0.00 0.00 0.00 55 1012.4
20260506002003 19 169 3.2 8.0 0.00 0.00 0.00 55 1012.4
20260506001005 19 166 4.8 11.3 0.00 0.00 0.00 55 1012.4
20260506000504 19 179 4.8 11.3 0.00 0.00 0.00 55 1012.4
20260505235504 20 166 3.2 9.7 0.00 0.00 0.00 55 1012.5
20260505235005 20 159 3.2 11.3 0.00 0.00 0.00 55 1012.6
20260505234504 20 162 4.8 11.3 0.00 0.00 0.00 55 1012.6
20260505234004 19 178 4.8 9.7 0.00 0.00 0.00 55 1012.6
20260505233504 20 196 3.2 8.0 0.00 0.00 0.00 54 1012.6
20260505233004 20 175 3.2 14.5 0.00 0.00 0.00 54 1012.7
20260505232504 20 169 3.2 14.5 0.00 0.00 0.00 54 1012.7
20260505232004 20 170 3.2 9.7 0.00 0.00 0.00 54 1012.8
20260505231504 20 176 3.2 9.7 0.00 0.00 0.00 54 1012.8
20260505231005 20 173 3.2 16.1 0.00 0.00 0.00 54 1012.8
20260505230504 20 184 4.8 16.1 0.00 0.00 0.00 54 1012.9
20260505230005 20 196 3.2 9.7 0.00 0.00 0.00 54 1012.9
20260505225504 20 186 4.8 9.7 0.00 0.00 0.00 55 1013.0
20260505225004 20 174 3.2 9.7 0.00 0.00 0.00 54 1013.1
20260505224004 20 176 3.2 12.9 0.00 0.00 0.00 54 1013.1
20260505223504 20 176 4.8 12.9 0.00 0.00 0.00 54 1013.1
20260505223005 20 161 4.8 12.9 0.00 0.00 0.00 54 1013.1
20260505222504 20 150 4.8 12.9 0.00 0.00 0.00 54 1013.1
20260505221504 20 174 4.8 9.7 0.00 0.00 0.00 54 1013.2
20260505221004 20 165 4.8 11.3 0.00 0.00 0.00 54 1013.2
20260505220504 21 193 3.2 11.3 0.00 0.00 0.00 53 1013.2
20260505220004 21 231 3.2 8.0 0.00 0.00 0.00 53 1013.3
20260505215504 20 188 4.8 14.5 0.00 0.00 0.00 54 1013.3
20260505215004 20 169 4.8 14.5 0.00 0.00 0.00 54 1013.3
20260505214505 20 188 4.8 12.9 0.00 0.00 0.00 54 1013.4
20260505214004 20 183 4.8 12.9 0.00 0.00 0.00 54 1013.4
20260505213504 20 223 4.8 12.9 0.00 0.00 0.00 54 1013.4
20260505213004 21 214 4.8 14.5 0.00 0.00 0.00 54 1013.4
20260505212504 20 188 3.2 14.5 0.00 0.00 0.00 54 1013.4
20260505212004 20 222 3.2 12.9 0.00 0.00 0.00 53 1013.4
20260505211504 20 165 4.8 12.9 0.00 0.00 0.00 55 1013.4
20260505211004 20 171 3.2 12.9 0.00 0.00 0.00 54 1013.4
20260505210504 20 205 4.8 9.7 0.00 0.00 0.00 54 1013.5
20260505210004 19 214 4.8 14.5 0.00 0.00 0.00 54 1013.6
20260505205503 20 207 4.8 14.5 0.00 0.00 0.00 55 1013.7
20260505204504 19 159 3.2 8.0 0.00 0.00 0.00 55 1013.8
20260505204004 20 191 4.8 9.7 0.00 0.00 0.00 54 1013.7
20260505203504 19 205 4.8 9.7 0.00 0.00 0.00 55 1013.8
20260505203004 19 207 3.2 11.3 0.00 0.00 0.00 55 1013.8
20260505202504 19 198 3.2 11.3 0.00 0.00 0.00 55 1013.8
20260505201504 18 162 3.2 9.7 0.00 0.00 0.00 55 1013.9
20260505201004 20 174 3.2 9.7 0.00 0.00 0.00 54 1013.7
20260505195504 20 148 1.6 11.3 0.00 0.00 0.00 54 1013.9
20260505194504 18 166 3.2 6.4 0.00 0.00 0.00 52 1013.9
20260505194004 18 169 4.8 9.7 0.00 0.00 0.00 50 1014.0
20260505193503 17 178 4.8 9.7 0.00 0.00 0.00 51 1014.0
20260505193004 18 198 3.2 9.7 0.00 0.00 0.00 52 1014.0
20260505192004 17 166 4.8 12.9 0.00 0.00 0.00 50 1013.9
20260505191504 18 164 4.8 11.3 0.00 0.00 0.00 51 1013.9
20260505191004 17 164 4.8 11.3 0.00 0.00 0.00 45 1013.9
20260505190504 17 182 4.8 11.3 0.00 0.00 0.00 50 1014.0
20260505190004 17 187 4.8 11.3 0.00 0.00 0.00 47 1014.0
20260505185504 17 182 4.8 11.3 0.00 0.00 0.00 47 1014.0
20260505184504 17 208 4.8 11.3 0.00 0.00 0.00 47 1014.0
20260505184004 17 198 4.8 11.3 0.00 0.00 0.00 45 1014.0
20260505183503 16 162 4.8 11.3 0.00 0.00 0.00 39 1014.0
20260505183004 16 168 4.8 11.3 0.00 0.00 0.00 43 1014.0
20260505182503 16 182 6.4 14.5 0.00 0.00 0.00 43 1013.9
20260505181504 17 172 4.8 9.7 0.00 0.00 0.00 44 1013.8
20260505181003 16 179 4.8 11.3 0.00 0.00 0.00 42 1013.8
20260505180503 17 175 4.8 11.3 0.00 0.00 0.00 44 1013.7
20260505175504 17 171 4.8 11.3 0.00 0.00 0.00 47 1013.7
20260505175003 17 169 4.8 11.3 0.00 0.00 0.00 42 1013.8
20260505174504 17 170 4.8 8.0 0.00 0.00 0.00 47 1013.8
20260505174004 17 162 3.2 8.0 0.00 0.00 0.00 48 1013.7
20260505173504 17 167 3.2 8.0 0.00 0.00 0.00 49 1013.7
20260505172503 17 197 3.2 6.4 0.00 0.00 0.00 53 1013.7
20260505172004 17 217 3.2 8.0 0.00 0.00 0.00 53 1013.7
20260505171505 17 221 3.2 8.0 0.00 0.00 0.00 52 1013.7
20260505171003 17 195 3.2 9.7 0.00 0.00 0.00 51 1013.7
20260505170504 17 189 3.2 9.7 0.00 0.00 0.00 50 1013.7
20260505170003 17 184 4.8 8.0 0.00 0.00 0.00 48 1013.8
20260505165504 16 162 3.2 9.7 0.00 0.00 0.00 47 1013.8
20260505165003 16 150 3.2 9.7 0.00 0.00 0.00 47 1013.7
20260505164004 16 160 3.2 6.4 0.00 0.00 0.00 47 1013.7
20260505163503 16 195 3.2 8.0 0.00 0.00 0.00 47 1013.7
20260505163004 16 198 3.2 8.0 0.00 0.00 0.00 45 1013.7
20260505162503 16 181 3.2 6.4 0.00 0.00 0.00 40 1013.7
20260505162003 16 181 3.2 8.0 0.00 0.00 0.00 41 1013.7
20260505161504 16 189 3.2 8.0 0.00 0.00 0.00 41 1013.6
20260505161003 16 197 3.2 6.4 0.00 0.00 0.00 40 1013.6
20260505160503 16 187 1.6 6.4 0.00 0.00 0.00 41 1013.6
20260505153004 16 214 1.6 3.2 0.00 0.00 0.00 44 1013.5
20260505152504 16 0 0.0 3.2 0.00 0.00 0.00 32 1013.5
20260505152003 15 0 0.0 4.8 0.00 0.00 0.00 22 1013.4
20260505151504 15 254 1.6 4.8 0.00 0.00 0.00 21 1013.4
20260505151004 14 0 0.0 3.2 0.00 0.00 0.00 8 1013.4
20260505150503 14 0 0.0 3.2 0.00 0.00 0.00 3 1013.4
20260505124503 13 298 1.6 3.2 0.00 0.00 0.00 41 1011.9
20260505124004 13 298 1.6 3.2 0.00 0.00 0.00 42 1011.8
20260505123504 13 299 1.6 1.6 0.00 0.00 0.00 42 1011.7
20260505123003 13 0 0.0 1.6 0.00 0.00 0.00 41 1011.7
20260505122504 13 0 0.0 3.2 0.00 0.00 0.00 38 1011.7
20260505122003 13 0 0.0 3.2 0.00 0.00 0.00 38 1011.7
20260505121504 13 0 0.0 1.6 0.00 0.00 0.00 37 1011.6
20260505121003 13 0 0.0 3.2 0.00 0.00 0.00 39 1011.6
20260505120504 13 0 0.0 3.2 0.00 0.00 0.00 39 1011.6
20260505120004 13 0 0.0 1.6 0.00 0.00 0.00 42 1011.6
20260505115003 13 298 1.6 3.2 0.00 0.00 0.00 44 1011.4
20260505114504 13 299 1.6 3.2 0.00 0.00 0.00 45 1011.4
20260505114004 13 298 1.6 3.2 0.00 0.00 0.00 43 1011.3
20260505113503 13 299 1.6 3.2 0.00 0.00 0.00 42 1011.3
20260505113004 13 0 0.0 3.2 0.00 0.00 0.00 39 1011.2